sat.trackr.live / text

‹ back to catalog

2023-085AK

NORAD 57037 · 2023-085AK

PAYLOAD ACTIVE UNKNOWN

§ Identity

Operator
Country
PRC
Launch date
2023-06-15
Launch site
TAISC
Launch vehicle
Mass (kg)
RCS (m²)

External: N2YO · Heavens-Above · Gunter

§ Orbital elements

Epoch: 2026-09-21T20:59:29.911200Z

Period
94.81 min
Inclination
97.4905°
Eccentricity
0.0007308
Mean motion
15.18888035 rev/d
Perigee alt
504.2 km
Apogee alt
514.2 km
Semi-major
6,887.3 km
B*
1.8219e-4
RAAN
9.3076°
Arg perigee
121.9247°
Mean anomaly
238.2699°
Rev number
18,098

§ Raw data

2023-085AK1 57037U 23085AK  26264.87465175  .00003733  00000+0  18219-3 0  99922 57037  97.4905   9.3076 0007308 121.9247 238.2699 15.18888035180989

JSON: /api/v1/satellites/57037 · /tle

For live sub-satellite position, see the globe view (requires WebGL).

§ Visibility from observer

Set your observer location to see the next 7 days of passes ≥ 10°. The values pass through the URL so the page stays shareable.

No JS? Fill the form by hand. The geolocation button needs JavaScript.